TIANWANG 1B (TW-1B)
1 40927U 15051C   19360.23694993  .00011047  00000-0  14837-3 0  9997
2 40927  97.1149  45.3503 0008412  45.8554  26.6374 15.58044003239643
TIANWANG 1A (TW-1A)
1 40928U 15051D   19360.30503677  .00002144  00000-0  52619-4 0  9993
2 40928  97.1279  27.2977 0012436  98.0850 318.8122 15.41714851238533
LAPAN A2
1 40931U 15052B   19359.88753326 +.00000646 +00000-0 +76525-6 0  9996
2 40931 005.9928 140.3199 0013513 327.9320 031.8482 14.76622139229413
LQSAT
1 40958U 15057A   19360.16313669  .00000014  00000-0  97800-5 0  9992
2 40958  97.8778  63.9898 0017899 354.4332   5.6674 14.73101322226849
CHUBUSAT 2
1 41338U 16012B   19359.45356432  .00000271  00000-0  14269-4 0  9994
2 41338  31.0045  18.7506 0013743 182.9459 177.1096 15.00223492211437
CHUBUSAT 3
1 41339U 16012C   19360.33254523  .00000278  00000-0  14802-4 0  9992
2 41339  31.0132  11.0136 0013361 200.0594 159.9518 15.00393896211565
OUFTI-1
1 41458U 16025C   19360.00835337  .00001090  00000-0  58384-4 0  9996
2 41458  98.1004  96.5550 0166370  77.1669 284.8086 15.06340012201219
E-STAR-2
1 41459U 16025D   19360.20496319  .00001225  00000-0  65542-4 0  9996
2 41459  98.1011  96.3079 0167568  78.2769 283.7206 15.05944737201210
AAUSAT 4
1 41460U 16025E   19360.26401511  .00001501  00000-0  77449-4 0  9990
2 41460  98.0987  98.1268 0157083  68.7921 293.0011 15.08032933201383
NUSAT 1
1 41557U 16033B   19360.42494184  .00000937  00000-0  37393-4 0  9998
2 41557  97.4119  86.7950 0013243 350.7055   9.3937 15.27620807199208
BEESAT 4
1 41619U 16040W   19359.87942972 +.00001102 +00000-0 +48909-4 0  9995
2 41619 097.3450 058.3490 0012829 077.2567 283.0104 15.23563773182816
PRATHAM
1 41783U 16059A   19360.41604538  .00000066  00000-0  21946-4 0  9992
2 41783  98.0434  55.5300 0034436 142.5190 217.8423 14.63028500173437
ALSAT 1N
1 41789U 16059G   19360.24162460  .00000062  00000-0  20761-4 0  9992
2 41789  98.0470  57.7797 0029309 131.5347 228.8377 14.64285675173532
NAYIF 1
1 42017U 17008BX  19360.15364377  .00001217  00000-0  50126-4 0  9994
2 42017  97.3829  65.1029 0005448 203.8404 156.2582 15.26005647158963
MAX VALIER SAT
1 42778U 17036P   19360.17075988  .00000720  00000-0  34177-4 0  9994
2 42778  97.3309  53.4027 0010651 275.6195  84.3827 15.22317937139218
